Weather

Vsebine: Paragliding sitesCurrent conditionsCurrent conditions (amateur)Radar rainfal imageMeteo stationsPanoramic cameras


Current conditions (official report)

Show amateur stations

Click on a specific station to see its location

Location Weather conditions Temperature Wind Air pressure Last updated Geopedia
    °C direction speed (m/s) gusts (m/s) hPa    
Babno Polje 14   - - 2019-09-21 13:13:00
Babno Polje (756 m) 5   - - 2016-01-12 07:40:00
Bilje Nova Gorica 22   3 5 1024 2019-09-21 13:13:00
Bilje pri Novi Gorici 22   3 - 1024 2019-09-21 13:12:00
Blegoš 11   - - 2019-09-21 13:13:00
Bohinjska Češnjica 17   - - 2019-09-21 13:13:00
Boršt Gorenja vas 15   2 5 1025 2019-09-21 13:07:00
Bovec 18   1 3 1024 2019-09-21 13:08:00
Breginj 18   - - 2019-09-21 13:13:00
Bukovski vrh 14   - - 2019-09-21 13:13:00
Celje 17   2 - 1026 2019-09-21 13:12:00
Cerkniško jezero 16   - - 2019-09-21 13:13:00
Črnomelj 17   2 - 1027 2019-09-21 13:12:00
Davča 14   - - 2019-09-21 13:13:00
Dobliče Črnomelj 17   2 3 1027 2019-09-21 13:05:00
Dolenje Ajdovščina 21   2 6 2019-09-21 13:06:00
Gačnik 17   3 6 2019-09-21 13:13:00
Godnje 21   2 4 2019-09-21 13:13:00
Gornji Grad 17   - - 2019-09-21 13:13:00
Hočko Pohorje 15   - - 2019-09-21 13:13:00
Hrastnik 17   2 5 1026 2019-09-21 13:06:00
Idrija 18   - - 2019-09-21 13:13:00
Ilirska Bistrica 19   1 3 2019-09-21 13:07:00
Iskrba 16   2 4 2019-09-21 13:13:00
Jeronim 12   - - 2019-09-21 10:13:00
Jeruzalem 18   - - 2019-09-21 13:13:00
Jezersko 15   - - 2019-09-21 13:13:00
Juršče   - - 2016-09-13 14:33:00
Kamniška Bistrica 16   - - 2019-09-21 13:13:00
Kanin 8   - - 2019-09-21 13:13:00
Katarina nad Ljubljano 7   - - 2019-09-21 08:42:00
Kočevje 16   2 5 2019-09-21 12:53:00
Koper Kapitanija 21   3 4 1024 2019-09-21 13:07:00
Korensko sedlo 12   - - 2019-09-21 13:13:00
Kraj. park Goričko 16   5 8 2019-09-21 13:07:00
Kranj 18   - - 2019-09-21 13:13:00
Kredarica 10   2 3 2019-09-21 13:13:00
Krn 14   - - 2019-09-21 13:13:00
Krško 18   2 6 1027 2019-09-21 13:11:00
Krvavec 10   3 5 2019-09-21 13:13:00
Kubed 22   - - 2019-09-21 13:13:00
Kum 12   3 6 2019-09-21 13:13:00
Lendava 20   1 5 1026 2019-09-21 13:08:00
Let. E. Rusjana Maribor 18   5 7 1026 2019-09-21 13:06:00
Let. J. Pučnika Lj. 0   2 3 1011 2015-11-26 11:03:00
Let. J. Pučnika Ljubljana 17   3 5 1026 2019-09-21 13:13:00
Letališče Cerklje ob Krki 17   3 - 1026 2019-09-21 13:12:00
Letališče Edvarda Rusjana Maribor 18   5 - 1026 2019-09-21 13:12:00
Letališče Jožeta Pučnika Ljubljana 16   2 - 1026 2019-09-21 13:12:00
Letališče Lesce 15   4 - 1025 2019-09-21 13:12:00
Letališče Portorož 21   4 - 1024 2019-09-21 13:12:00
Lisca 14   2 4 2019-09-21 13:13:00
Lisca (943 m) 9   5 12 2016-03-29 14:02:00
Litija 18   - - 2019-09-21 13:13:00
Ljubljana 17   2 - 1026 2019-09-21 13:12:00
Logarska dolina 15   - - 2019-09-21 13:13:00
Logatec 16   - - 2019-09-21 13:13:00
Luka Koper 24   3 4 2019-09-21 13:06:00
Malkovec 17   2 4 1027 2019-09-21 13:08:00
Maribor 17   5 8 2019-09-21 13:13:00
Maribor - Tabor 17   3 7 2019-09-21 13:04:00
Marinča vas 17   - - 2019-09-21 13:13:00
Metlika 18   - - 2019-09-21 13:13:00
Mežica 17   - - 2019-09-21 13:13:00
Miklavž na Gorjancih 11   - - 2019-09-21 13:13:00
Murska Sobota 18   3 5 1026 2019-09-21 13:13:00
Nanos 11   4 8 2019-09-21 13:14:00
Nova Gorica 22   1 4 2019-09-21 13:06:00
Nova vas - Bloke 14   - - 2019-09-21 13:13:00
Novo mesto 17   2 4 1026 2019-09-21 13:13:00
Osilnica 18   - - 2019-09-21 13:13:00
Otlica 12   2 6 2019-09-21 13:03:00
Otlica (965 m) 7   4 7 2016-03-31 08:24:00
Park Škocj. jame 19   3 7 1024 2019-09-21 13:02:00
Pasja ravan 13   1 4 2019-09-21 13:13:00
Pavličevo sedlo 11   - - 2019-09-21 13:13:00
Piran-ocean. boja 27   1 2 2019-07-30 09:11:00
Planina pod Golico 15   - - 2019-09-21 13:13:00
Podčetrtek 18   1 4 1026 2019-09-21 13:04:00
Podnanos 23   4 6 2019-09-21 13:13:00
Postojna 17   4 8 1024 2019-09-21 13:13:00
Predel 14   - - 2019-09-21 13:13:00
Ptuj 18   2 4 2019-09-21 13:13:00
Ptuj - Terme -2   2 3 2017-01-19 14:35:00
Radegunda 14   - - 2019-09-21 13:13:00
Radenci 18   - - 1027 2019-09-21 13:07:00
Rateče 15   2 - 2019-09-21 13:12:00
Rateče (864 m) 15   2 5 2019-09-21 13:05:00
Ratitovec 8   3 4 2019-09-21 13:13:00
Ravne na Koroškem 17   3 6 2019-09-21 13:08:00
Rogaška Slatina 18   2 4 2019-09-21 13:13:00
Rogla 8   3 5 2019-09-21 12:54:00
Rogla (1492 m) -11   4 7 2016-01-18 10:32:00
Rudno polje 12   1 2 2019-09-21 13:13:00
Rudno polje (1347 m) -2   1 3 2015-10-20 07:36:00
Sevno 15   - - 2019-09-21 13:13:00
Slavnik 14   5 8 2019-09-21 13:13:00
Slovenj Gradec 17   3 - 2019-09-21 13:12:00
Slovenske Konjice 17   - - 2019-09-21 13:13:00
Sviščaki 12   1 1 2019-09-21 13:13:00
Šebreljski vrh 12   - - 2019-09-21 13:13:00
Šmartno pri Slovenj Gradcu 17   4 6 2019-09-21 13:13:00
Tatre 17   - - 2019-09-21 13:13:00
Tolmin - Volče 20   3 7 2019-09-21 13:13:00
Topol 13   - - 2019-09-21 13:13:00
Trbovlje 18   2 3 2019-09-21 13:07:00
Trebnje 16   - - 2019-09-21 13:13:00
Trije Kralji na Pohorju 11   - - 2019-09-21 13:13:00
Trojane - Limovce 15   3 5 1025 2019-09-21 13:13:00
Uršlja gora 8   3 5 2019-09-21 13:13:00
Vedrijan 20   - - 2019-09-21 13:13:00
Velenje 16   - - 2019-09-21 12:53:00
Velike Lašče 15   3 6 2019-09-21 12:53:00
Vogel 9   2 3 2019-09-21 12:53:00
Vojsko 6   - - 2019-09-21 08:42:00
Vrbanski plato -2   2 3 2016-12-07 11:23:00
Vrhnika 18   2 5 2019-09-21 12:53:00
Vršič 11   - - 2019-09-21 12:53:00
Zadlog 14   - - 2019-09-21 12:53:00
Zelenica 9   - - 2019-09-21 12:53:00
Zgornja Kapla 14   2 4 2019-09-21 12:53:00
Zgornja Radovna 13   - - 2019-09-21 12:53:00
Zgornja Sorica 14   - - 2019-09-21 12:53:00
Source: Slovenian Environmental Agency, meteo.si